| time (UTC) | temp C | wind direction | speed KPH | gust KPH | rain 1hr cm | rain 24hr cm | rain mn cm | humidity % | barometer mb |
| 20260505195957 | 28 | 143 | 11.3 | 29.0 | 0.00 | 0.00 | 0.00 | 39 | 1008.0 |
| 20260505195000 | 28 | 209 | 9.7 | 29.0 | 0.00 | 0.00 | 0.00 | 40 | 1008.0 |
| 20260505192951 | 28 | 200 | 9.7 | 25.7 | 0.00 | 0.00 | 0.00 | 41 | 1008.3 |
| 20260505191949 | 28 | 183 | 9.7 | 25.7 | 0.00 | 0.00 | 0.00 | 40 | 1008.4 |
| 20260505184949 | 28 | 251 | 9.7 | 29.0 | 0.00 | 0.00 | 0.00 | 42 | 1008.8 |
| 20260505183949 | 28 | 265 | 8.0 | 20.9 | 0.00 | 0.00 | 0.00 | 41 | 1009.0 |
| 20260505181947 | 28 | 174 | 9.7 | 30.6 | 0.00 | 0.00 | 0.00 | 41 | 1009.3 |
| 20260505180947 | 28 | 58 | 8.0 | 20.9 | 0.00 | 0.00 | 0.00 | 45 | 1009.2 |
| 20260505175948 | 28 | 218 | 8.0 | 19.3 | 0.00 | 0.00 | 0.00 | 47 | 1009.5 |
| 20260505174948 | 28 | 234 | 6.4 | 24.1 | 0.00 | 0.00 | 0.00 | 42 | 1009.5 |
| 20260505173947 | 28 | 230 | 4.8 | 20.9 | 0.00 | 0.00 | 0.00 | 46 | 1009.6 |
| 20260505172948 | 28 | 300 | 4.8 | 16.1 | 0.00 | 0.00 | 0.00 | 48 | 1009.6 |
| 20260505171946 | 27 | 148 | 6.4 | 19.3 | 0.00 | 0.00 | 0.00 | 48 | 1009.8 |
| 20260505170948 | 28 | 263 | 4.8 | 12.9 | 0.00 | 0.00 | 0.00 | 49 | 1009.9 |
| 20260505165950 | 27 | 220 | 4.8 | 14.5 | 0.00 | 0.00 | 0.00 | 49 | 1009.9 |
| 20260505164942 | 27 | 266 | 3.2 | 14.5 | 0.00 | 0.00 | 0.00 | 51 | 1010.0 |
| 20260505163943 | 27 | 145 | 3.2 | 14.5 | 0.00 | 0.00 | 0.00 | 51 | 1010.0 |
| 20260505162941 | 27 | 216 | 3.2 | 14.5 | 0.00 | 0.00 | 0.00 | 52 | 1010.0 |
| 20260505160941 | 27 | 157 | 4.8 | 11.3 | 0.00 | 0.00 | 0.00 | 50 | 1010.1 |
| 20260505152941 | 26 | 184 | 4.8 | 14.5 | 0.00 | 0.00 | 0.00 | 53 | 1010.8 |
| 20260505151936 | 25 | 281 | 4.8 | 14.5 | 0.00 | 0.00 | 0.00 | 53 | 1010.8 |
| 20260505150934 | 25 | 193 | 4.8 | 11.3 | 0.00 | 0.00 | 0.00 | 54 | 1010.7 |
| 20260505124932 | 20 | 273 | 3.2 | 11.3 | 0.00 | 0.00 | 0.00 | 69 | 1011.1 |
| 20260505123933 | 19 | 229 | 1.6 | 8.0 | 0.00 | 0.00 | 0.00 | 72 | 1011.2 |
| 20260505115932 | 18 | 150 | 0.0 | 3.2 | 0.00 | 0.00 | 0.00 | 74 | 1011.1 |
| 20260505114933 | 18 | 259 | 0.0 | 1.6 | 0.00 | 0.00 | 0.00 | 77 | 1011.3 |
| 20260505111933 | 15 | 244 | 0.0 | 0.0 | 0.00 | 0.00 | 0.00 | 86 | 1011.1 |
| 20260505101922 | 13 | 244 | 0.0 | 0.0 | 0.00 | 0.00 | 0.00 | 86 | 1011.2 |
| 20260505095921 | 13 | 226 | 1.6 | 4.8 | 0.00 | 0.00 | 0.00 | 85 | 1011.1 |
| 20260505094921 | 13 | 272 | 0.0 | 4.8 | 0.00 | 0.00 | 0.00 | 87 | 1011.0 |
| 20260505092920 | 12 | 295 | 0.0 | 1.6 | 0.00 | 0.00 | 0.00 | 92 | 1010.3 |
| 20260505091923 | 10 | 194 | 0.0 | 1.6 | 0.00 | 0.00 | 0.00 | 94 | 1010.1 |
| 20260505090920 | 10 | 255 | 0.0 | 0.0 | 0.00 | 0.00 | 0.00 | 94 | 1010.1 |
| 20260505085920 | 10 | 255 | 0.0 | 0.0 | 0.00 | 0.00 | 0.00 | 94 | 1010.3 |
| 20260505084920 | 10 | 255 | 0.0 | 0.0 | 0.00 | 0.00 | 0.00 | 94 | 1010.2 |
| 20260505083919 | 10 | 255 | 0.0 | 0.0 | 0.00 | 0.00 | 0.00 | 93 | 1010.3 |
| 20260505082919 | 10 | 255 | 0.0 | 0.0 | 0.00 | 0.00 | 0.00 | 94 | 1010.4 |
| 20260505081916 | 10 | 255 | 0.0 | 0.0 | 0.00 | 0.00 | 0.00 | 93 | 1010.4 |
| 20260505080916 | 10 | 255 | 0.0 | 0.0 | 0.00 | 0.00 | 0.00 | 92 | 1010.2 |
| 20260505075916 | 10 | 255 | 0.0 | 0.0 | 0.00 | 0.00 | 0.00 | 91 | 1010.3 |
| 20260505074919 | 10 | 255 | 0.0 | 0.0 | 0.00 | 0.00 | 0.00 | 90 | 1010.3 |
| 20260505073917 | 11 | 255 | 0.0 | 0.0 | 0.00 | 0.00 | 0.00 | 89 | 1010.3 |
| 20260505072917 | 11 | 255 | 0.0 | 0.0 | 0.00 | 0.00 | 0.00 | 88 | 1010.3 |
| 20260505071917 | 11 | 255 | 0.0 | 0.0 | 0.00 | 0.00 | 0.00 | 86 | 1010.2 |
| 20260505070917 | 12 | 255 | 0.0 | 0.0 | 0.00 | 0.00 | 0.00 | 85 | 1010.3 |
| 20260505065918 | 12 | 255 | 0.0 | 0.0 | 0.00 | 0.00 | 0.00 | 83 | 1010.3 |
| 20260505064918 | 13 | 255 | 0.0 | 0.0 | 0.00 | 0.00 | 0.00 | 82 | 1010.2 |
| 20260505063916 | 13 | 255 | 0.0 | 3.2 | 0.00 | 0.00 | 0.00 | 82 | 1010.3 |
| 20260505062915 | 13 | 218 | 0.0 | 1.6 | 0.00 | 0.00 | 0.00 | 82 | 1010.2 |
| 20260505061918 | 13 | 238 | 0.0 | 1.6 | 0.00 | 0.00 | 0.00 | 82 | 1010.3 |
| 20260505060931 | 13 | 296 | 0.0 | 3.2 | 0.00 | 0.00 | 0.00 | 83 | 1010.0 |
| 20260505055911 | 12 | 162 | 0.0 | 1.6 | 0.00 | 0.00 | 0.00 | 84 | 1010.0 |
| 20260505054909 | 12 | 138 | 0.0 | 1.6 | 0.00 | 0.00 | 0.00 | 84 | 1010.2 |
| 20260505053911 | 12 | 191 | 0.0 | 0.0 | 0.00 | 0.00 | 0.00 | 83 | 1010.4 |
| 20260505052909 | 12 | 183 | 0.0 | 1.6 | 0.00 | 0.00 | 0.00 | 81 | 1010.4 |
| 20260505051910 | 13 | 247 | 0.0 | 3.2 | 0.00 | 0.00 | 0.00 | 81 | 1010.4 |
| 20260505050909 | 13 | 117 | 0.0 | 0.0 | 0.00 | 0.00 | 0.00 | 79 | 1010.5 |
| 20260505040918 | 15 | 239 | 0.0 | 3.2 | 0.00 | 0.00 | 0.00 | 74 | 1010.5 |
| 20260505035909 | 15 | 181 | 0.0 | 4.8 | 0.00 | 0.00 | 0.00 | 72 | 1010.6 |
| 20260505034905 | 15 | 213 | 0.0 | 3.2 | 0.00 | 0.00 | 0.00 | 72 | 1010.7 |
| 20260505033903 | 15 | 144 | 0.0 | 4.8 | 0.00 | 0.00 | 0.00 | 71 | 1010.6 |
| 20260505032905 | 15 | 266 | 1.6 | 6.4 | 0.00 | 0.00 | 0.00 | 70 | 1010.7 |
| 20260505031904 | 15 | 253 | 0.0 | 0.0 | 0.00 | 0.00 | 0.00 | 69 | 1010.7 |
| 20260505030906 | 15 | 206 | 0.0 | 3.2 | 0.00 | 0.00 | 0.00 | 68 | 1010.7 |
| 20260505025859 | 15 | 221 | 0.0 | 3.2 | 0.00 | 0.00 | 0.00 | 67 | 1010.8 |
| 20260505024859 | 16 | 77 | 0.0 | 4.8 | 0.00 | 0.00 | 0.00 | 65 | 1010.8 |
| 20260505023858 | 16 | 219 | 0.0 | 6.4 | 0.00 | 0.00 | 0.00 | 64 | 1010.9 |
| 20260505020905 | 16 | 184 | 1.6 | 8.0 | 0.00 | 0.00 | 0.00 | 62 | 1011.1 |
| 20260505015909 | 15 | 224 | 0.0 | 1.6 | 0.00 | 0.00 | 0.00 | 62 | 1011.0 |
| 20260505014912 | 15 | 298 | 0.0 | 3.2 | 0.00 | 0.00 | 0.00 | 63 | 1010.9 |
| 20260505012854 | 15 | 228 | 0.0 | 0.0 | 0.00 | 0.00 | 0.00 | 63 | 1010.7 |
| 20260505011854 | 15 | 228 | 0.0 | 0.0 | 0.00 | 0.00 | 0.00 | 59 | 1010.6 |
| 20260505010855 | 16 | 228 | 0.0 | 1.6 | 0.00 | 0.00 | 0.00 | 56 | 1010.4 |
| 20260505004852 | 17 | 328 | 0.0 | 1.6 | 0.00 | 0.00 | 0.00 | 52 | 1010.3 |
| 20260505003851 | 18 | 143 | 0.0 | 1.6 | 0.00 | 0.00 | 0.00 | 51 | 1010.2 |
| 20260505002853 | 18 | 182 | 0.0 | 1.6 | 0.00 | 0.00 | 0.00 | 50 | 1009.9 |
| 20260505001853 | 18 | 158 | 0.0 | 3.2 | 0.00 | 0.00 | 0.00 | 50 | 1009.9 |
| 20260504234851 | 20 | 235 | 0.0 | 6.4 | 0.00 | 0.00 | 0.00 | 46 | 1009.4 |
| 20260504233846 | 20 | 194 | 1.6 | 6.4 | 0.00 | 0.00 | 0.00 | 46 | 1009.3 |
| 20260504232843 | 20 | 239 | 1.6 | 8.0 | 0.00 | 0.00 | 0.00 | 45 | 1009.3 |
| 20260504231842 | 21 | 212 | 3.2 | 9.7 | 0.00 | 0.00 | 0.00 | 43 | 1009.3 |
| 20260504230841 | 21 | 224 | 1.6 | 11.3 | 0.00 | 0.00 | 0.00 | 43 | 1009.2 |
| 20260504225841 | 21 | 152 | 3.2 | 11.3 | 0.00 | 0.00 | 0.00 | 42 | 1009.1 |
| 20260504224838 | 22 | 194 | 1.6 | 9.7 | 0.00 | 0.00 | 0.00 | 41 | 1009.1 |
| 20260504223835 | 22 | 246 | 3.2 | 9.7 | 0.00 | 0.00 | 0.00 | 42 | 1009.3 |
| 20260504222835 | 22 | 271 | 4.8 | 12.9 | 0.00 | 0.00 | 0.00 | 41 | 1009.1 |
| 20260504220835 | 23 | 142 | 1.6 | 9.7 | 0.00 | 0.00 | 0.00 | 40 | 1009.2 |
| 20260504215835 | 23 | 280 | 3.2 | 9.7 | 0.00 | 0.00 | 0.00 | 40 | 1009.3 |
| 20260504214835 | 22 | 284 | 6.4 | 12.9 | 0.00 | 0.00 | 0.00 | 40 | 1009.4 |
| 20260504213835 | 23 | 214 | 3.2 | 14.5 | 0.00 | 0.00 | 0.00 | 41 | 1009.4 |
| 20260504212835 | 23 | 127 | 4.8 | 12.9 | 0.00 | 0.00 | 0.00 | 38 | 1009.4 |
| 20260504211836 | 23 | 223 | 4.8 | 16.1 | 0.00 | 0.00 | 0.00 | 39 | 1009.5 |
| 20260504210830 | 23 | 195 | 8.0 | 17.7 | 0.00 | 0.00 | 0.00 | 40 | 1009.6 |
| 20260504205829 | 23 | 250 | 4.8 | 12.9 | 0.00 | 0.00 | 0.00 | 39 | 1009.6 |
| 20260504204832 | 23 | 185 | 4.8 | 14.5 | 0.00 | 0.00 | 0.00 | 40 | 1009.5 |
| 20260504201825 | 23 | 274 | 3.2 | 17.7 | 0.00 | 0.00 | 0.00 | 40 | 1009.5 |
| 20260504200821 | 23 | 134 | 6.4 | 20.9 | 0.00 | 0.00 | 0.00 | 41 | 1009.6 |